This is the latest recevied weather packets stored in our database for station/object KD6VLN-14. If no packets are shown the sender has not sent any weather packets the latest 1 day(s).
| Time | Temp. | Humidity | Pressure | Rain* | Wind** | Luminosity | Snow |
|---|---|---|---|---|---|---|---|
| 1778034409 | 18.33° C | 36% | - | 0 mm | 3.13 m/s, 262° | - | - |
| 1778034248 | 18.33° C | 36% | - | 0 mm | 3.13 m/s, 262° | - | - |
| 1778034105 | 18.33° C | 36% | - | 0 mm | 3.58 m/s, 275° | - | - |
| 1778033948 | 18.33° C | 36% | - | 0 mm | 3.58 m/s, 275° | - | - |
| 1778033804 | 18.33° C | 36% | - | 0 mm | 2.24 m/s, 276° | - | - |
| 1778033648 | 18.33° C | 36% | - | 0 mm | 2.24 m/s, 276° | - | - |
| 1778033503 | 18.89° C | 36% | - | 0 mm | 2.24 m/s, 274° | - | - |
| 1778033348 | 18.89° C | 36% | - | 0 mm | 2.24 m/s, 274° | - | - |
| 1778033168 | 19.44° C | 36% | - | 0 mm | 2.68 m/s, 271° | - | - |
| 1778033048 | 19.44° C | 36% | - | 0 mm | 2.68 m/s, 271° | - | - |
| 1778032876 | 20° C | 36% | - | 0 mm | 3.13 m/s, 267° | - | - |
| 1778032748 | 20° C | 36% | - | 0 mm | 3.13 m/s, 267° | - | - |
| 1778032677 | 20.56° C | 36% | - | 0 mm | 3.58 m/s, 266° | - | - |
| 1778032448 | 20.56° C | 36% | - | 0 mm | 3.58 m/s, 266° | - | - |
| 1778032377 | 21.11° C | 36% | - | 0 mm | 3.58 m/s, 274° | - | - |
| 1778032148 | 21.11° C | 36% | - | 0 mm | 3.58 m/s, 274° | - | - |
| 1778031975 | 21.67° C | 36% | - | 0 mm | 3.13 m/s, 268° | - | - |
| 1778031848 | 21.67° C | 36% | - | 0 mm | 3.13 m/s, 268° | - | - |
| 1778031740 | 22.22° C | 36% | - | 0 mm | 4.47 m/s, 265° | - | - |
| 1778031548 | 22.22° C | 36% | - | 0 mm | 4.47 m/s, 265° | - | - |
| 1778031422 | 22.22° C | 36% | - | 0 mm | 3.58 m/s, 250° | - | - |
| 1778031248 | 22.22° C | 36% | - | 0 mm | 3.58 m/s, 250° | - | - |
| 1778031127 | 22.22° C | 36% | - | 0 mm | 4.02 m/s, 262° | - | - |
| 1778030948 | 22.22° C | 36% | - | 0 mm | 4.02 m/s, 262° | - | - |
| 1778030868 | 22.78° C | 36% | - | 0 mm | 3.58 m/s, 257° | - | - |
* Rain latest hour (hover to see other rain measurements)
** Current wind speed in m/s (hover to see current wind gust speed)